Hlavní strana
METAR-TAF:

METAR-TAF

Letiště :

Skövde, Švédsko

zeměpisná šířka: 58-27N, zeměpisná délka: 013-58E, výška: 98 m

Aktuální stav počasí

Zpráva byla vytvořena před 38 minutami, v 01:50 UTC
vítr z různých směrů 3 kt
Teplota -1°C
Vlhkost vzduchu 93%
Tlak 1023 hPa
Viditelnost 10 km a více

METAR: ESGR 190150Z AUTO VRB03KT 9999 NCD M01/M02 Q1023

Čas: 04:28 (02:28 UTC)


TAF: chybějící

Stav a předpovědi počasí z více než 4 000 letišť (zprávy METAR a TAF).

Červené a žluté tečky na mapě představují dostupné meteorologické stanice.

Když kurzor umístíte na tečku, zobrazí se název stanice.

Pak kliknutím zobrazíte stav a předpověď počasí.

Chcete-li změnit mapu, kliknutím na zelené tlačítko se znaménkem +mapu přiblížíte, kliknutím na zelené tlačítko se znaménkem – mapu oddálíte a kliknutím na zelené šipky přejdete na sousední mapy.


METAR-TAF: